カタログに戻る

STARLINK-31640

運用中通信VLEO
NORAD 59748·PAYLOAD·🇺🇸 United States

打ち上げ May 13, 2024 から Cape Canaveral Space Force Station

Loading…

次のパス (今後24時間)

TLE

最新Source: CelesTrak SupGP

元期: Sep 14, 2026, 22:32 UTC

1 59748C 24090U   26257.93937500 -.00029657  00000+0 -10740-2 0  2577
2 59748  43.0025 194.7631 0001348 264.1303  67.1803 15.27598707    12

AllMySatでSTARLINK-31640をリアルタイム追跡

Download on the App Store